Vorticity
0 3 4 2 3 6 7 1 4 2 3 4 4 7 6 8 8 3 5 7 5 10 8 7 7 8 6 6 6 5 4 5 8 7 6 8 7 9 8 7 5 3 5
1 4 2 1 3 5 7 2 4 1 0 3 7 8 11 7 12 6 3 6 2 4 3 3 3 3 5 6 6 5 5 4 8 9 8 20 12 7 5 4 5 5 5
14 5 9 3 4 6 9 2 2 1 1 2 5 7 7 7 10 7 4 2 0 1 3 4 4 4 4 4 6 6 4 3 7 9 19 -5 5 3 6 7 5 7 8
7 11 6 4 7 4 8 5 1 3 2 2 4 5 7 8 6 15 6 5 2 4 4 6 5 5 5 3 3 6 2 5 4 9 14 10 6 6 5 7 6 9 9
6 8 7 6 8 7 5 2 0 5 2 2 2 5 5 7 7 8 13 5 5 5 3 5 3 5 3 4 5 6 3 4 3 7 9 15 5 4 6 7 9 7 9
5 7 5 7 8 7 6 2 2 5 -0 2 3 4 5 5 6 5 8 12 6 3 2 3 2 6 5 4 4 4 4 3 5 2 7 8 14 5 6 6 8 9 9
12 7 6 6 6 7 5 4 2 4 4 3 2 5 4 3 6 7 6 8 11 7 3 5 4 1 3 3 4 5 5 4 3 5 4 4 6 5 7 6 6 5 8
7 12 6 7 8 6 6 4 3 5 4 1 2 3 4 3 5 7 7 7 8 11 8 3 4 2 0 -0 3 3 5 5 4 4 4 4 7 6 7 7 7 8 9
5 7 5 4 5 7 5 5 4 2 2 2 1 3 3 2 3 6 6 7 7 8 11 9 4 5 2 1 2 3 3 5 4 4 4 4 5 5 7 6 7 7 8
4 7 6 6 5 3 3 4 5 5 5 3 2 1 2 4 1 4 6 6 8 8 8 11 11 6 4 3 2 3 3 4 4 5 5 4 7 3 6 6 5 5 9
4 5 8 8 6 6 6 7 4 3 3 4 5 4 3 3 3 2 6 6 5 7 7 7 10 10 8 6 4 3 4 4 5 5 5 5 8 6 3 6 4 4 6
9 9 1 8 7 6 6 6 5 6 5 3 3 4 4 3 3 3 4 7 6 6 7 7 8 10 9 8 6 3 4 4 5 6 5 6 7 3 1 6 5 4 4
7 7 6 2 3 7 6 6 6 6 4 7 5 4 4 3 4 4 4 3 6 5 6 5 5 8 10 8 8 6 4 5 4 5 6 4 5 5 3 4 6 5 5
7 9 11 10 8 4 3 4 6 4 6 4 5 6 4 5 4 2 3 4 4 5 5 5 6 6 8 10 8 8 7 6 5 4 7 7 7 6 5 5 5 3 7
6 6 6 6 7 8 8 8 7 5 4 6 5 4 4 7 4 4 2 4 2 5 5 5 4 5 6 7 8 7 7 6 4 5 7 8 7 7 7 6 6 7 2
8 7 7 7 6 5 4 4 5 7 8 7 5 6 6 7 10 4 4 3 3 3 3 5 5 3 6 6 7 6 7 7 6 5 7 8 8 8 8 6 8 7 7
3 4 5 6 7 7 7 8 9 6 3 5 8 7 6 5 -1 16 2 -3 3 4 4 3 4 5 4 6 6 6 7 7 5 6 7 8 8 6 7 7 6 5 9
12 11 11 12 11 7 4 6 6 8 6 7 5 5 7 9 21 9 27 9 -1 3 4 3 4 4 6 4 5 6 6 6 8 6 8 10 8 7 6 7 6 4 6
3 2 2 5 6 9 14 13 9 8 7 9 5 7 4 7 5 3 0 4 8 3 1 2 2 5 5 4 4 5 7 6 7 8 8 8 7 7 7 6 6 5 4
5 6 7 9 9 8 8 10 13 13 6 6 8 6 9 6 1 0 2 -12 63 5 -1 5 2 3 5 4 4 4 5 5 6 7 7 7 7 5 5 6 5 4 4
8 9 10 8 11 12 8 9 9 10 14 9 5 4 6 6 10 10 7 7 14 -7 32 -7 0 2 5 5 3 4 5 7 6 5 6 6 6 4 4 6 6 4 3
4 11 11 9 7 8 8 18 3 9 12 12 14 3 4 9 5 6 9 4 10 19 29 67 -10 1 4 5 3 3 4 5 5 5 5 5 5 5 4 4 7 8 6
12 9 7 4 6 10 9 5 7 6 2 12 7 6 14 5 8 6 5 6 9 10 0 75 29 1 5 3 5 4 4 5 7 6 4 5 5 5 5 7 6 4 14
8 5 4 10 8 4 11 8 17 42 41 39 49 42 28 27 10 6 8 4 8 13 10 25 42 -15 0 3 5 2 3 4 2 3 5 5 6 4 7 11 8 6 -0
5 9 5 18 13 15 24 38 26 3 19 9 17 21 44 32 40 9 8 8 4 1 7 -25 38 9 5 3 3 3 3 5 6 5 4 5 5 4 7 4 4 14 10
8 10 18 21 13 14 36 25 6 0 9 24 18 20 16 31 30 25 17 9 6 5 4 15 16 -16 7 6 1 3 4 4 7 5 5 4 5 4 8 8 7 5 15
Height
5864 5863 5862 5861 5860 5860 5861 5861 5860 5859 5858 5857 5856 5855 5854 5853 5852 5851 5850 5848 5847 5847 5846 5845 5844 5843 5841 5839 5837 5835 5833 5832 5830 5828 5826 5824 5821 5820 5820 5818 5818 5817 5816
5861 5861 5861 5860 5859 5858 5858 5859 5859 5858 5857 5856 5855 5854 5853 5851 5850 5849 5849 5848 5847 5847 5847 5846 5844 5843 5841 5839 5838 5835 5833 5831 5829 5827 5825 5822 5821 5819 5819 5818 5816 5816 5814
5858 5859 5859 5858 5857 5856 5856 5857 5857 5856 5855 5855 5854 5852 5850 5849 5848 5848 5847 5847 5847 5847 5846 5845 5844 5842 5840 5839 5837 5835 5833 5832 5830 5827 5824 5823 5821 5820 5819 5817 5815 5814 5813
5856 5855 5855 5855 5854 5853 5854 5855 5855 5855 5853 5852 5851 5850 5849 5848 5846 5845 5845 5845 5845 5844 5844 5844 5842 5841 5839 5838 5836 5835 5833 5832 5829 5827 5824 5822 5820 5818 5817 5815 5814 5812 5811
5853 5854 5852 5851 5851 5851 5851 5852 5852 5852 5851 5850 5849 5848 5848 5846 5844 5843 5842 5842 5843 5842 5842 5841 5840 5839 5838 5837 5836 5833 5832 5831 5829 5827 5824 5822 5820 5818 5816 5814 5813 5811 5810
5850 5849 5848 5848 5848 5847 5848 5848 5849 5849 5848 5847 5846 5846 5846 5844 5842 5840 5840 5840 5840 5839 5839 5839 5838 5837 5836 5835 5834 5831 5830 5829 5827 5825 5823 5822 5820 5818 5816 5813 5811 5810 5809
5848 5846 5844 5844 5844 5844 5844 5844 5844 5845 5844 5844 5843 5843 5843 5841 5839 5838 5838 5837 5837 5836 5836 5836 5835 5835 5835 5833 5832 5829 5828 5827 5825 5824 5823 5821 5819 5817 5815 5813 5811 5809 5808
5840 5839 5838 5837 5837 5837 5838 5838 5838 5839 5839 5839 5839 5840 5840 5839 5837 5836 5835 5835 5834 5833 5832 5832 5832 5832 5832 5831 5830 5827 5825 5825 5824 5823 5821 5820 5818 5817 5815 5813 5811 5809 5808
5830 5831 5831 5831 5832 5834 5835 5835 5836 5836 5836 5836 5836 5836 5836 5835 5834 5834 5832 5832 5831 5830 5829 5828 5827 5828 5828 5828 5827 5825 5823 5822 5822 5821 5820 5818 5817 5816 5813 5812 5810 5809 5807
5832 5830 5831 5831 5831 5829 5829 5830 5831 5832 5832 5831 5830 5830 5831 5831 5830 5830 5829 5828 5828 5827 5826 5824 5824 5823 5824 5824 5824 5822 5820 5819 5819 5818 5817 5815 5815 5814 5813 5812 5810 5808 5806
5828 5828 5826 5827 5827 5827 5827 5826 5825 5825 5824 5825 5826 5826 5826 5826 5826 5826 5825 5824 5823 5822 5821 5820 5819 5819 5819 5820 5821 5819 5818 5816 5816 5815 5814 5813 5812 5811 5811 5811 5809 5807 5805
5821 5821 5823 5822 5820 5818 5818 5818 5819 5819 5819 5819 5820 5819 5820 5820 5820 5821 5821 5820 5819 5818 5817 5816 5815 5814 5814 5815 5816 5816 5815 5813 5812 5812 5811 5810 5809 5810 5810 5809 5807 5806 5804
5814 5814 5813 5813 5813 5811 5810 5810 5809 5811 5812 5813 5813 5813 5813 5814 5814 5814 5814 5814 5814 5813 5812 5811 5811 5809 5809 5809 5810 5812 5812 5811 5810 5809 5809 5808 5808 5807 5807 5806 5805 5804 5802
5804 5804 5804 5804 5804 5804 5803 5803 5801 5802 5803 5804 5805 5804 5805 5806 5806 5807 5808 5808 5807 5807 5806 5805 5805 5805 5805 5805 5806 5806 5806 5807 5806 5805 5805 5805 5804 5804 5803 5802 5802 5801 5800
5795 5795 5794 5794 5794 5794 5793 5794 5793 5792 5793 5795 5795 5796 5796 5796 5796 5797 5799 5799 5801 5800 5801 5799 5799 5799 5799 5799 5800 5802 5802 5801 5801 5801 5799 5800 5799 5799 5799 5798 5798 5798 5798
5786 5785 5783 5783 5782 5784 5785 5785 5785 5784 5783 5784 5785 5787 5785 5785 5784 5783 5786 5789 5792 5793 5793 5794 5792 5792 5792 5793 5794 5795 5796 5797 5796 5796 5795 5796 5795 5795 5795 5795 5795 5794 5793
5778 5777 5777 5776 5774 5771 5772 5774 5775 5775 5774 5773 5773 5775 5775 5773 5773 5771 5768 5775 5781 5784 5784 5785 5786 5784 5786 5786 5788 5789 5791 5791 5791 5791 5791 5791 5791 5791 5791 5791 5791 5790 5790
5770 5768 5768 5767 5767 5764 5761 5760 5760 5762 5763 5763 5762 5762 5763 5763 5761 5762 5762 5757 5767 5772 5774 5776 5777 5776 5777 5779 5779 5782 5784 5785 5785 5785 5786 5786 5786 5786 5786 5786 5786 5785 5785
5760 5758 5756 5754 5754 5754 5754 5752 5749 5745 5747 5748 5749 5750 5750 5750 5751 5749 5750 5753 5754 5757 5761 5765 5768 5769 5768 5770 5772 5772 5775 5778 5780 5780 5779 5779 5780 5781 5781 5781 5781 5780 5780
5749 5746 5744 5742 5741 5739 5739 5740 5738 5736 5731 5729 5732 5734 5737 5736 5736 5737 5737 5744 5741 5744 5748 5751 5755 5760 5759 5761 5763 5764 5766 5768 5771 5775 5774 5774 5774 5774 5775 5775 5775 5775 5775
5738 5735 5733 5731 5729 5726 5724 5724 5723 5720 5719 5716 5713 5712 5716 5720 5721 5722 5722 5726 5728 5729 5731 5738 5739 5745 5749 5752 5753 5756 5759 5761 5763 5766 5767 5768 5768 5768 5768 5768 5769 5769 5769
5725 5722 5719 5715 5712 5709 5709 5707 5704 5703 5702 5700 5698 5696 5692 5699 5703 5705 5707 5710 5711 5716 5717 5719 5720 5730 5735 5736 5742 5746 5750 5754 5756 5758 5760 5762 5761 5761 5763 5762 5763 5763 5763
5715 5711 5707 5704 5700 5696 5692 5689 5685 5684 5682 5680 5677 5675 5677 5673 5682 5687 5691 5693 5695 5702 5689 5690 5704 5714 5720 5723 5730 5734 5738 5748 5748 5749 5752 5754 5753 5755 5755 5755 5756 5756 5757
5702 5699 5695 5690 5685 5679 5674 5668 5663 5660 5657 5652 5649 5648 5649 5653 5658 5666 5672 5676 5678 5685 5686 5688 5692 5691 5700 5708 5714 5722 5727 5736 5737 5739 5743 5748 5747 5748 5749 5750 5750 5749 5749
5690 5685 5679 5673 5669 5662 5656 5649 5645 5642 5638 5634 5632 5628 5627 5629 5636 5644 5651 5656 5659 5666 5670 5672 5677 5684 5686 5693 5703 5710 5715 5723 5728 5730 5734 5738 5739 5741 5743 5745 5744 5743 5742
5676 5670 5665 5660 5654 5648 5642 5635 5630 5627 5622 5620 5617 5616 5613 5614 5616 5622 5628 5635 5639 5648 5654 5658 5661 5666 5679 5678 5692 5694 5701 5711 5720 5722 5724 5725 5729 5731 5733 5735 5738 5737 5736